Simultaneous Nadir Overpasses (SNOs) Predictions

Prediction of SNOs between LANDSAT-8 and NOAA-19 Satellite Orbit:

Table of predicted SNOs for the next 14.0 days since TLE Epoch: 1/5/2014
Index Date (LANDSAT-8) Time (LANDSAT-8) Lat,Lon (LANDSAT-8) SZA (LANDSAT-8 ) Date (NOAA-19) Time (NOAA-19) Lat,Lon (NOAA-19) SZA (NOAA-19 ) Distance(km) Time Diff (sec)
1 01/07/2014 14:18:06 71.40, -35.96 93.65 01/07/2014 14:17:55 71.38, -35.91 93.64 2.35 11
2 01/07/2014 15:07:37 -71.23, 131.40 86.53 01/07/2014 15:08:49 -71.22, 131.65 86.55 9.01 72
3 01/09/2014 19:02:21 71.40,-107.03 93.35 01/09/2014 19:02:01 71.41,-106.96 93.36 2.53 20
4 01/09/2014 19:51:50 -71.34, 60.51 86.72 01/09/2014 19:52:56 -71.31, 60.47 86.74 3.25 66
5 01/11/2014 23:46:35 71.44,-178.03 93.06 01/11/2014 23:46:07 71.45,-178.04 93.07 1.65 28
6 01/12/2014 00:36:05 -71.33, -10.58 87.06 01/12/2014 00:37:01 -71.32, -10.55 87.07 1.21 56
7 01/14/2014 04:30:49 71.46, 110.94 92.71 01/14/2014 04:30:12 71.46, 110.94 92.71 0.23 37
8 01/14/2014 05:20:19 -71.35, -81.61 87.41 01/14/2014 05:21:06 -71.35, -81.58 87.41 0.94 47
9 01/16/2014 09:15:03 71.46, 39.88 92.31 01/16/2014 09:14:17 71.48, 39.90 92.34 2.55 46
10 01/16/2014 10:04:32 -71.40,-152.58 87.76 01/16/2014 10:05:11 -71.38,-152.64 87.78 3.43 39
11 01/18/2014 13:59:16 71.50, -31.12 91.92 01/18/2014 13:58:22 71.52, -31.16 91.95 2.84 54
12 01/18/2014 14:48:46 -71.39, 136.33 88.20 01/18/2014 14:49:15 -71.38, 136.36 88.22 1.75 29
